Other Public Products
Issued by NWS Grand Forks, ND

Current Version | Previous Version | Text Only | Print | Product List | Glossary On
Versions: 1 2 3 4 5 6 7 8 9 10 11 12 13 14 15 16 17 18 19 20 21 22 23 24 25 26 27 28 29 30 31 32 33 34 35 36 37 38 39 40 41 42 43 44 45 46 47 48 49 50
000
FPUS83 KFGF 301910
OPUFGF
PRAIRIE TO PINES WEATHER ROUNDUP
NATIONAL WEATHER SERVICE EASTERN NORTH DAKOTA/GRAND FORKS ND
200 PM CDT SAT AUG 30 2014

 **SATELLITE DATA USED TO AUGMENT SKY COVER AT AUTOMATED STATIONS**
 *****  WEATHER ACROSS EASTERN NORTH DAKOTA  *****

CITY           SKY/WX    TMP DP  RH WIND       PRES   REMARKS
GRAND FORKS    MOSUNNY   71  51  49 NE5       29.88F
GRAND FORKS AF SUNNY     69  51  52 VRB1      29.90F
GRAND CITY NWS   N/A     68 N/A N/A S3          N/A
BUXTON         NOT AVBL
DEVILS LAKE    SUNNY     66  50  55 S8        29.87F
FARGO          PTSUNNY   70  57  63 NE6       29.88F
WAHPETON ARPT  CLOUDY    63  55  77 CALM      29.90S
$$

 *****  WEATHER ACROSS CENTRAL AND WESTERN NORTH DAKOTA  *****

CITY           SKY/WX    TMP DP  RH WIND       PRES   REMARKS
JAMESTOWN      SUNNY     69  54  58 E6        29.88F
BISMARCK       SUNNY     71  54  54 S9G18     29.86F
MINOT          SUNNY     71  48  43 SE14G24   29.82F
MINOT AFB      SUNNY     70  50  48 SE16G22   29.81F
GARRISON         N/A     70  53  54 S14G21    29.82F
WILLISTON      CLOUDY    73  57  57 SE13      29.75F
DICKINSON      SUNNY     72  57  59 SE20      29.78F
HETTINGER      SUNNY     74  57  55 SE16G28   29.80F
$$

 *****  OTHER OBSERVATIONS NORTHEAST NORTH DAKOTA  *****

CITY           SKY/WX    TMP DP  RH WIND       PRES   REMARKS
WALHALLA       FAIR      66  50  55 SE8       29.90F
LANGDON        FAIR      70  45  40 SE7       29.90F
CAVALIER       FAIR      68  48  49 S6        29.90F
GRAFTON        NOT AVBL
CANDO          FAIR      66  50  55 SE9       29.89F
FORT TOTTEN      N/A     70  51  51 S7        29.95
ROLLA          FAIR      64  46  52 S13       29.89F
RUGBY          FAIR      66  48  52 S8        29.87F
 ***** THE ABOVE OBSERVATIONS ARE NON NWS ARE NOT QUALITY
        CONTROLLED AND MAY MIS-REPORT RAIN FOR SNOW...
$$

 *****  OTHER OBSERVATIONS SOUTHEAST NORTH DAKOTA *****

CITY           SKY/WX    TMP DP  RH WIND       PRES   REMARKS
COOPERSTOWN    NOT AVBL
VALLEY CITY    FAIR      68  54  60 NE3       29.89F
OAKES            N/A     72  57  60 NE6       29.89F
GWINNER        NOT AVBL
SHEYENNE NWR     N/A     69  58  69 E7        29.95S
BUFFALO        NOT AVBL
WYNDMERE       NOT AVBL
 ***** THE ABOVE OBSERVATIONS ARE NON NWS ARE NOT QUALITY
       CONTROLLED AND MAY MIS-REPORT RAIN FOR SNOW...
$$

  *****  WEATHER ACROSS NORTHERN MINNESOTA  *****

CITY           SKY/WX    TMP DP  RH WIND       PRES   REMARKS
FLAG ISLAND    PTSUNNY   63  52  67 CALM      29.91F
WARROAD        SUNNY     64  55  72 NE8       29.93S
ROSEAU         SUNNY     70  54  56 E5        29.91F
HALLOCK        SUNNY     70  52  52 SE5       29.89F
THF RVR FALLS  MOSUNNY   68  52  56 N3        29.90F
HALSTAD          N/A     73  52  47 N7          N/A
FOSSTON        SUNNY     70  59  68 CALM      29.90F
BAUDETTE       SUNNY     68  51  54 E5        29.90F
WASKISH        CLOUDY    66  55  68 NE5       29.90S
CROOKSTON      SUNNY     70  54  56 CALM      29.90F
$$
  *****  WEATHER ACROSS CENTRAL AND WEST MINNESOTA  *****

CITY           SKY/WX    TMP DP  RH WIND       PRES   REMARKS
BEMIDJI        CLOUDY    63  56  79 NE5       29.90S
PARK RAPIDS    CLOUDY    63  57  81 NE3       29.90S
WADENA         CLOUDY    63  59  88 N3        29.89F
DETROIT LAKES  CLOUDY    64  59  82 NE5       29.90F
MOORHEAD       CLOUDY    66  63  88 CALM      29.89F
FERGUS FALLS   CLOUDY    64  61  88 W5        29.89S
ELBOW LAKE     CLOUDY    63  60  88 W3        29.89S
MORRIS MN      SUNNY     66  61  82 NW6       29.89S
STAPLES        CLOUDY    61  59  94 N3        29.90S
WHEATON        CLOUDY    61  55  82 CALM      29.91S
$$
  *****  WEATHER ELSEWHERE ACROSS MINNESOTA  *****

CITY           SKY/WX    TMP DP  RH WIND       PRES   REMARKS
DULUTH         CLOUDY    66  60  81 E8        29.88R
INTRNTL FALLS  MOSUNNY   70  53  54 N7        29.90S
ELY            CLOUDY    61  55  82 NE6       29.91R
CLOQUET        CLOUDY    64  61  88 E5        29.88R
BRAINERD       CLOUDY    64  61  90 N3        29.89S
HIBBING        CLOUDY    64  57  78 NE6       29.90S
ALEXANDRIA     CLOUDY    67  60  78 NE3       29.90S
SAINT CLOUD    CLOUDY    73  64  73 CALM      29.87S
MINNEAPOLIS    PTSUNNY   75  62  64 N7        29.86S
$$

  *****  WEATHER ACROSS SOUTH DAKOTA  *****

CITY           SKY/WX    TMP DP  RH WIND       PRES   REMARKS
SIOUX FALLS    CLOUDY    68  59  73 W6        29.93S
BROOKINGS      NOT AVBL
WATERTOWN      CLOUDY    65  58  78 W5        29.91F
HURON          CLOUDY    68  58  70 SW6       29.91F
SISSETON         N/A     67  58  72 CALM      29.89S
ABERDEEN       MOSUNNY   67  57  70 CALM      29.90F
MITCHELL       CLOUDY    65  58  78 W6        29.94S
PIERRE         SUNNY     74  57  55 E14       29.84F
MOBRIDGE       SUNNY     70  57  63 S14       29.84F
RAPID CITY     SUNNY     80  58  46 SE18      29.80F
$$

  *****  SOME WEATHER IN NEARBY STATES *****

CITY           SKY/WX    TMP DP  RH WIND       PRES   REMARKS
GLASGOW MT     LGT RAIN  63  60  90 CALM      29.72F
GREAT FALLS MT CLOUDY    73  40  30 W18G24    29.79F
CHEYENNE WY    SUNNY     80  42  25 SW14G23   30.03F
SCOTTSBLUFF NE SUNNY     87  54  32 E8        29.87F
OMAHA NE       MOSUNNY   76  65  68 SE3       29.93F
DES MOINES IA  MOSUNNY   82  69  64 NW8       29.90S
DAVENPORT IA   PTSUNNY   78  67  68 NW13      29.89S
CHICAGO IL     PTSUNNY   81  64  56 SW17G29   29.85S
EAU CLAIRE WI  CLOUDY    69  64  84 N7        29.83R
LA CROSSE WI   LGT RAIN  75  66  73 NW9       29.83R
$$

  *****  SOME NATIONAL WEATHER *****

CITY           SKY/WX    TMP DP  RH WIND       PRES   REMARKS
LA GUARDIA NY  PTSUNNY   76  60  57 S12       30.21F
RALEIGH NC     MOSUNNY   88  70  55 SE5       30.17F HX  93
ATLANTA GA     LGT RAIN  86  73  65 E7        30.11F HX  93
NEW ORLEANS LA TSTM      76  72  87 S15       30.10R
OKLAHOMA CITY  MOSUNNY   94  58  29 N7G17     29.94F HX  93
ALBUQUERQUE NM MOSUNNY   83  43  24 SW7       30.15F
SALT LAKE CITY LGT RAIN  78  37  22 W16G25    29.99R
LOS ANGELES CA MOSUNNY   76  64  66 W8        29.84F
BOISE ID       SUNNY     74  41  30 W5        29.91F
SEATTLE WA     CLOUDY    63  58  83 SE8       29.91F
$$

*** WEATHER ACROSS MANITOBA...SASKATCHEWAN AND ONTARIO ***
                ***ONTARIO***

CITY           SKY/WX    TMP DP  RH WIND       PRES   REMARKS
GERALDTON      CLOUDY    64  54  68 NE6       29.88F
THUNDER BAY    CLOUDY    68  57  68 E12       29.87R
SIOUX LOOKOUT  PTSUNNY   63  52  67 VRB3      29.93S
TORONTO        PTSUNNY   81  66  61 SE12G18   29.95F
BIG TROUT LK   SUNNY     59  39  47 W8        29.94S
PICKLE LAKE    MOSUNNY   63  45  51 VRB3      29.95S
DRYDEN         PTSUNNY   64  52  63 E6        29.92F
KENORA         PTSUNNY   64  54  68 VRB6      29.93F
$$
                *** MANITOBA***

CITY           SKY/WX    TMP DP  RH WIND       PRES   REMARKS
BRANDON        PTSUNNY   66  48  52 SE14G20   29.85F
DAUPHIN        SUNNY     70  50  49 S10       29.82F
ISLAND LAKE    MOSUNNY   61  43  51 CALM      29.94F
PILOT MOUND      N/A     66  45  45 SE9         N/A
THE PAS        CLOUDY    66  48  52 SE20G28   29.73F
THOMPSON       PTSUNNY   63  45  51 SW7       29.84F
WINNIPEG       MOSUNNY   68  48  49 S10       29.90F
LYNN LAKE      MOSUNNY   64  43  45 MISG      29.76F
CHURCHILL      MOSUNNY   55  39  54 NW10      29.83R
GILLAM         MOSUNNY   61  41  48 NW8       29.87F
$$
                ***SASKATCHEWAN***

CITY           SKY/WX    TMP DP  RH WIND       PRES   REMARKS
ESTEVAN        CLOUDY    72  55  56 S16       29.76F
KINDERSLEY     MOSUNNY   66  48  52 NW13G23   29.67F
LLOYDMINSTER   NOT AVBL
PRINCE ALBERT  CLOUDY    64  57  77 SW13      29.57F
REGINA         CLOUDY    68  57  68 S16G22    29.68F


USA.gov is the U.S. government's official web portal to all federal, state and local government web resources and services.